Showing default

VSP ROSE, 59124

Orbit data source: Space-Track

VSP ROSE, 59124 is a payload satellite owned by Aerospacelab (BE) in SSO that was launched on Mon, 04 Mar 2024 UTC via an FALCON 9 launch vehicle from the Air Force Western Test Range (AFWTR). Payload-class satellites include a variety of spacecraft equipped with specific instruments for various scientific and technological missions. These include communications satellites like Starlink; space stations such as the ISS; scientific satellites like the Hubble; Earth observation satellites from companies like Planet Labs, Umbra, and HawkEye 360; GPS; miniature CubeSats for education and research; and military/defense satellites.

Loading next visibility...
Identifier
59124, 2024-043AC
Orbit
SSO
Country
Flag of BEBE / BEL
Related business
Manufacturer
Aerospacelab
Mission
Operational Commercial Imaging
Bus & Motor
AEROSP, Unknown motor
Mass
~200 kg wet, ~200 kg dry
Launch date (UTC)
2024-03-04 (2 years ago)
Launch vehicle
FALCON 9
Launch site
Air Force Western Test Range (AFWTR)
Object type
Payload
Rocket body
Debris
Shape & HBR
Box + 2 Pan, 1.0 m
Radar Cross Section
0.963 m², Large (>1 m²)

Expand to show TLE details & history
Last TLE update: 7 hours ago

TLE from 7 hours ago
0 VSP ROSE
1 59124U 24043AC  26169.80709192  .00002775  00000-0  10224-3 0  9997
2 59124  97.5622 306.2249 0009535 236.5018 123.5310 15.28680173127238
Epoch: 2026-06-18T19:22Z
TLE epoch observation values (Epoch: 2026-06-18T19:22:12.741Z)
Latitude
-0.00013°
Longitude
108.6267°
Altitude
486.472 km
Speed
7.62 km/s
True Right ascension
20h 24m 53s
True Declination
0° 00' 00"
Sunlit
Object was in full shadow at epoch
Visualization orbit readout
Latitude
Unknown
Longitude
Unknown
Altitude
Unknown
Speed
Unknown
Apparent Right ascension
Unknown
Apparent Declination
Unknown
Sunlit
N/A
Visualization observer readout
Local Sidereal Time
12:43:15
Azimuth
Unknown
Elevation
Unknown
Doppler factor
Unknown
Orbital elements
Apogee altitude
483.254 km
Perigee altitude
470.182 km
Semi-major axis
6,854.855 km
Eccentricity
0.00095
Inclination
97.5622°
RAAN
306.2249°
Arg. of periapsis
236.5018°
True anomaly
123.62202°
Mean anomaly
123.531°
Eccentric anomaly
123.57652°
Mean motion
3.82425 °/min
Orbital period
94.14 mins
BSTAR
0.00010224
Loading maneuver chart data...
Computing Atmospheric mass density...
Loading historical data...
Loading historical data...
Loading historical data...
Loading historical data...
Loading historical data...
Loading historical data...
Loading historical data...

Documentation

Showing up to 5 results
|